Temp_Advection
nan nan nan nan nan nan nan nan nan nan nan nan nan nan nan nan nan nan nan nan nan nan nan nan nan nan nan nan nan nan nan nan nan nan nan nan nan nan nan nan nan nan nan
nan 1 0 0 -0 1 1 0 -0 1 1 0 0 0 0 0 0 0 0 0 -0 -0 -0 -0 -0 -0 -0 0 0 -0 0 0 0 -0 0 0 0 0 -0 -0 0 0 nan
nan 0 0 0 0 0 1 0 -0 -1 0 0 -0 -0 -0 -0 -0 -0 -0 -0 -0 -0 -0 -0 -0 -0 -0 -0 0 -0 0 0 0 0 -0 0 0 0 -0 0 0 0 nan
nan 0 0 0 0 0 0 0 0 -0 -0 -0 -0 -0 -0 -0 -0 -0 -0 -0 -0 -0 -0 -0 -0 -0 -0 -0 -0 -0 0 0 0 0 0 -0 -0 0 0 0 -0 -0 nan
nan 1 1 0 0 0 0 0 0 0 0 0 0 -0 -0 -0 -0 -0 -0 -0 -0 0 0 0 0 0 -0 -0 -0 -0 0 0 0 0 0 -0 -0 0 0 -0 0 -0 nan
nan 1 1 1 1 0 -0 0 0 0 0 0 0 0 -0 -0 -0 -0 -0 -0 0 0 0 0 0 0 0 0 0 0 -0 0 0 0 -0 0 0 0 0 -0 -0 0 nan
nan 1 1 1 1 0 -0 0 0 0 0 -0 0 0 0 -0 -0 -0 0 0 0 0 0 0 0 0 0 0 0 -0 -0 0 0 0 0 0 0 0 0 0 0 0 nan
nan 1 1 2 1 -1 -0 1 0 1 0 -0 0 0 -0 -0 0 0 0 0 0 0 0 0 0 1 0 0 0 0 0 0 0 0 0 -0 -0 -0 0 0 0 0 nan
nan 1 1 2 1 -0 1 1 1 0 -0 0 -0 -0 -0 0 0 0 0 0 0 0 0 0 0 0 0 0 0 0 0 0 0 0 0 0 0 -0 -0 0 -0 -0 nan
nan 0 1 0 1 1 1 1 1 0 0 -0 -0 -0 0 0 0 0 0 0 0 0 0 0 0 0 0 0 0 0 0 0 0 0 0 0 0 -0 0 1 1 -0 nan
nan 0 0 -0 -0 0 0 1 0 0 -0 -0 -0 -0 0 0 0 0 0 0 0 0 0 -0 0 0 -0 -0 0 0 0 0 0 -0 0 0 -0 -0 1 1 0 0 nan
nan 1 0 -0 -0 -0 0 1 0 -0 -1 -0 -0 0 0 0 0 0 0 0 0 0 -0 0 0 0 0 -0 -0 -0 -0 -0 0 0 -0 -0 -0 0 1 0 0 -0 nan
nan 1 1 0 -0 0 0 0 0 -0 -0 0 1 0 0 0 0 0 0 0 0 0 -0 0 0 0 -0 -0 -0 -0 0 -0 -0 -0 0 -0 -0 -0 0 0 0 0 nan
nan -0 1 0 0 -0 0 0 -0 -0 -0 0 0 0 0 0 0 0 0 0 0 0 -0 0 0 0 0 0 -0 -0 0 0 0 -0 -0 -0 -1 -0 0 0 0 0 nan
nan -0 -1 0 -0 -0 1 0 -0 0 0 1 0 0 0 0 0 0 0 0 0 -0 0 0 0 0 0 0 0 0 -0 0 0 0 0 -0 -1 -1 -0 -0 0 0 nan
nan -0 -1 -1 -0 1 1 0 0 0 1 1 0 0 0 0 0 0 0 0 0 -0 -0 0 0 0 0 0 -0 -0 0 -0 -0 0 0 0 -0 -0 -0 -0 -0 -0 nan
nan 0 -1 -1 -1 3 2 1 0 1 1 1 1 1 0 1 1 0 0 0 0 0 -0 0 0 0 0 0 0 0 0 0 0 0 0 0 0 0 0 -0 -0 -0 nan
nan 0 -0 -0 0 -0 2 2 2 1 1 1 1 1 0 0 0 0 0 0 0 0 0 -0 0 0 0 0 0 0 0 0 0 0 0 0 0 0 0 -0 -0 -0 nan
nan 0 0 0 -0 1 0 3 3 2 1 1 1 1 0 0 0 0 0 0 0 0 0 0 -0 0 0 0 0 0 0 0 0 0 0 0 0 0 0 -0 -0 -0 nan
nan -0 0 0 0 -0 -0 -0 1 1 1 1 1 0 0 0 0 0 0 0 0 -0 -0 0 0 -0 -0 -0 -0 -0 0 0 0 0 0 0 0 0 0 0 0 0 nan
nan 0 0 -0 -0 1 1 -1 0 0 0 0 0 0 0 0 0 -0 0 -0 -0 -0 -0 -0 -0 -0 -0 0 -0 -0 -0 0 0 0 0 0 0 0 0 0 0 0 nan
nan -0 0 0 0 0 0 -2 -0 -0 -0 0 0 0 0 0 0 0 0 -0 -0 -0 -0 -0 -0 -0 -0 -0 -0 -0 -0 -0 -0 -0 0 -0 -0 -0 0 0 0 0 nan
nan 0 -0 0 0 0 0 -1 -1 -0 -0 -1 -0 0 0 0 0 0 0 0 0 0 0 -0 -0 -0 -0 -0 -0 -0 -0 -0 -0 -0 0 0 -0 0 0 0 0 0 nan
nan 0 0 0 1 1 1 1 -0 -1 0 -1 -0 -0 -0 0 0 0 0 0 0 0 0 0 0 0 0 0 0 -0 -0 -0 -0 -0 0 0 0 0 0 0 0 0 nan
nan -0 0 0 0 0 -0 1 1 1 1 1 -0 -0 -0 -0 -0 -0 -0 0 0 0 0 0 0 0 0 0 0 0 0 0 0 0 0 0 0 0 0 0 0 0 nan
nan nan nan nan nan nan nan nan nan nan nan nan nan nan nan nan nan nan nan nan nan nan nan nan nan nan nan nan nan nan nan nan nan nan nan nan nan nan nan nan nan nan nan
Wind_Speed
31 33 33 32 30 29 27 27 26 23 22 19 18 18 17 16 16 16 17 18 18 15 11 10 10 12 10 9 12 11 13 14 14 13 14 13 11 13 13 12 12 13 12
27 35 34 34 33 30 28 27 27 24 23 21 20 18 18 17 17 18 18 17 13 10 7 8 8 11 11 8 10 11 12 13 12 12 12 13 11 12 11 12 10 11 10
23 37 36 35 35 31 28 28 27 25 24 22 21 18 18 18 18 17 16 14 11 8 7 7 8 8 8 9 9 10 10 10 11 11 11 12 10 9 11 10 11 10 10
21 39 37 36 35 33 29 29 28 27 25 22 21 20 19 17 16 16 14 13 10 9 8 7 8 8 9 10 10 10 11 10 11 11 9 9 8 9 7 9 10 12 13
27 40 38 37 36 33 31 30 28 26 23 21 20 19 18 17 16 15 14 12 10 9 9 9 9 9 9 10 12 12 11 11 11 11 9 10 11 10 8 9 11 11 9
31 40 38 37 37 34 31 30 28 25 25 23 20 17 15 15 15 14 13 11 11 10 10 10 10 10 11 12 13 13 11 11 12 10 13 14 15 15 13 10 10 11 9
34 40 38 37 38 34 32 31 29 26 26 23 18 16 15 15 14 14 13 12 11 10 10 10 11 12 13 13 14 13 12 11 10 14 17 17 15 12 12 11 7 6 1
35 40 38 37 38 34 33 31 28 27 26 23 18 16 15 15 14 14 13 12 11 11 11 12 14 14 15 15 15 14 14 15 20 18 16 13 10 8 7 5 3 3 5
33 38 37 34 37 36 34 30 30 30 27 22 18 16 17 16 15 14 13 13 12 12 13 15 15 17 17 18 17 17 17 21 20 18 14 11 6 7 4 3 3 3 2
32 35 35 32 33 34 33 32 32 30 26 21 18 18 17 17 16 15 14 13 13 14 14 18 17 18 18 17 15 15 16 17 16 15 12 10 6 4 9 8 10 9 11
31 36 35 32 33 35 36 33 33 30 25 22 21 19 18 18 17 15 14 13 15 15 20 20 19 19 18 16 13 12 11 13 14 13 13 10 6 11 11 11 12 12 13
33 37 36 36 37 38 37 37 35 30 27 23 20 19 19 17 16 15 14 15 16 16 20 19 19 17 14 12 11 10 10 13 13 13 12 8 8 11 11 11 12 12 13
21 32 33 40 41 42 41 38 34 29 26 22 21 21 21 19 18 17 17 18 17 20 21 21 19 16 13 11 12 13 14 14 17 13 8 6 10 12 11 11 11 12 13
18 10 16 44 45 45 41 37 31 28 25 24 23 22 21 20 19 19 18 18 18 19 20 20 18 15 15 14 14 17 15 13 13 9 9 10 11 12 11 11 11 11 11
25 23 22 31 46 46 43 36 31 28 25 24 23 22 20 20 21 21 21 20 20 20 18 18 17 16 15 16 17 15 14 12 10 10 10 9 11 12 11 11 11 11 10
13 26 38 21 41 53 43 35 30 26 25 24 23 21 20 19 21 22 22 21 20 19 18 16 16 16 16 15 16 15 13 11 11 10 10 9 8 8 8 8 8 8 8
4 10 20 26 11 45 41 34 30 27 25 25 23 22 22 20 21 21 21 21 20 19 18 18 18 17 16 16 15 14 13 12 11 10 9 8 7 6 6 5 5 5 5
10 8 4 6 19 4 30 33 30 27 26 24 23 23 22 21 20 21 21 21 21 20 19 18 17 17 16 15 14 13 12 11 10 9 8 7 6 4 4 3 3 3 4
13 15 11 12 11 15 15 34 26 26 25 23 23 22 22 21 21 20 21 21 21 21 20 18 17 14 16 15 13 11 10 9 8 8 7 7 5 4 3 2 1 1 1
18 17 16 23 26 11 8 24 18 19 21 22 22 20 20 21 21 21 21 21 21 21 20 19 16 16 14 13 12 10 8 7 7 7 7 7 5 3 3 2 1 1 1
20 23 16 19 21 19 20 19 9 13 18 20 21 20 20 20 21 21 21 21 21 20 19 18 18 16 16 14 13 11 8 8 8 8 7 8 7 5 3 2 1 1 1
22 18 16 17 21 21 34 29 7 8 15 18 20 20 20 20 20 20 20 21 21 22 21 19 18 18 16 16 13 11 8 9 11 10 10 10 8 6 4 4 3 3 3
20 17 17 15 13 20 19 26 15 11 16 18 20 21 21 20 19 19 19 19 20 19 19 19 18 17 16 16 13 9 6 6 8 11 11 11 9 8 7 6 6 7 6
12 16 19 17 18 20 29 30 24 17 27 24 21 21 21 21 20 20 19 19 18 18 18 16 16 16 15 15 15 13 10 8 6 4 9 11 11 10 10 8 8 9 9
8 11 15 23 22 26 30 31 33 27 34 24 21 22 21 20 19 18 18 19 19 19 18 17 17 17 16 15 14 12 11 9 8 8 6 10 10 10 10 10 10 11 11
8 8 11 13 26 31 35 34 28 27 32 28 22 23 23 22 21 21 20 20 20 20 20 19 18 16 13 12 12 11 11 14 15 10 13 10 9 8 9 9 11 11 12
Wind_Direction
197 194 183 180 178 175 175 175 169 167 164 163 164 163 155 151 150 151 153 148 145 143 148 150 151 131 135 131 133 128 122 122 117 111 104 97 96 100 95 92 88 89 92
202 194 186 182 179 176 176 175 171 162 165 170 168 161 160 162 162 162 162 162 166 174 189 177 180 160 151 142 129 133 131 130 130 121 108 103 92 87 91 91 85 82 80
212 193 189 184 180 175 179 178 173 169 169 173 175 170 170 169 169 170 173 182 191 206 214 200 188 181 164 157 144 143 139 137 132 127 112 101 97 103 93 99 81 82 75
213 194 190 185 181 175 182 181 176 175 174 179 176 178 181 182 181 184 192 200 209 213 199 189 179 173 167 164 161 155 151 146 140 138 123 99 104 114 106 101 94 93 97
205 194 190 186 182 176 184 179 177 177 177 182 177 179 184 187 190 197 203 205 201 190 179 170 166 162 161 162 164 159 145 142 138 133 122 108 105 107 108 117 111 104 97
205 196 191 187 183 179 185 179 177 173 180 182 179 184 190 196 199 200 199 188 182 178 170 164 158 155 152 153 157 155 146 145 138 122 118 112 108 108 102 103 122 118 113
208 197 192 189 184 183 184 181 177 181 187 185 189 192 198 201 196 192 187 179 178 172 168 159 152 151 145 144 144 148 150 149 142 126 120 118 117 119 129 116 117 121 165
209 199 193 190 186 185 184 183 179 184 187 188 193 197 199 197 187 185 182 175 176 169 165 153 147 145 142 136 135 134 131 130 128 127 130 122 128 119 121 142 186 241 264
206 200 194 189 187 188 184 182 183 188 191 192 198 197 195 188 181 181 179 172 174 169 169 153 152 142 134 132 129 127 127 135 138 132 141 126 136 115 106 139 226 242 264
208 200 194 190 186 185 182 188 189 194 192 197 199 197 189 182 179 180 178 171 171 171 156 143 145 139 138 138 133 131 134 141 145 146 130 132 134 129 97 85 90 90 80
212 200 194 191 189 184 188 189 195 194 196 198 198 193 183 181 179 175 177 169 169 168 147 147 149 147 142 144 143 144 149 155 159 146 139 150 160 102 95 88 86 83 84
205 199 193 193 191 192 191 196 194 195 197 197 191 182 180 177 174 174 173 169 167 157 148 152 149 147 146 148 153 158 152 155 161 151 150 179 161 102 91 89 86 84 83
319 192 195 197 196 195 197 196 197 194 194 188 184 179 177 177 175 174 174 171 166 155 153 153 151 152 152 154 157 155 150 147 136 139 141 127 108 103 98 91 84 82 83
330 8 200 210 203 198 202 198 197 195 191 186 181 179 178 176 174 172 172 167 157 151 150 153 155 153 149 145 147 148 148 145 144 139 135 122 109 103 98 91 86 82 85
279 289 310 213 214 202 200 199 196 193 189 185 181 177 176 175 172 169 168 164 158 153 156 156 156 151 147 143 146 153 154 152 149 139 132 125 119 114 105 93 85 78 75
303 298 283 323 215 207 199 197 194 190 186 182 179 175 171 174 172 167 164 164 161 159 159 160 157 153 148 145 147 151 152 148 142 138 133 127 118 111 106 97 87 77 67
27 348 282 280 328 191 194 192 189 187 184 179 175 171 168 167 167 166 168 169 168 166 166 164 158 154 152 146 146 144 145 144 143 142 138 133 124 117 108 100 92 82 72
171 147 236 277 249 275 169 186 185 181 177 176 173 169 168 169 170 171 171 173 172 168 168 167 164 156 153 148 148 147 148 148 149 151 148 145 132 128 121 111 100 86 68
203 182 143 206 263 282 244 163 168 173 174 175 175 172 171 172 171 172 171 171 170 171 169 171 166 166 157 153 151 150 150 153 157 159 159 159 150 142 134 136 114 69 75
172 168 178 173 183 194 188 150 150 168 176 174 175 175 175 172 172 172 172 174 173 174 172 171 174 164 162 160 156 158 163 170 175 178 182 182 176 171 172 159 197 257 331
159 164 156 178 173 177 192 174 183 182 179 176 177 175 176 175 173 175 177 176 177 179 178 177 175 177 173 170 168 171 184 197 202 203 204 202 198 201 202 218 223 271 304
186 193 184 169 142 140 147 160 177 210 193 183 180 176 178 178 176 178 181 180 181 180 182 183 186 181 181 179 176 172 183 214 220 216 217 216 218 222 239 247 246 249 276
207 207 202 189 175 208 189 189 181 238 210 198 185 182 181 179 178 179 183 186 187 188 189 187 188 192 189 186 181 172 167 190 198 219 224 225 233 233 239 247 256 255 266
212 212 201 184 178 172 178 183 178 181 210 211 194 189 186 181 181 184 185 187 190 189 192 193 193 196 199 201 192 195 197 189 178 205 225 227 230 230 238 245 257 263 278
221 219 217 200 181 179 185 184 181 182 192 187 195 190 188 184 182 184 186 187 189 190 190 193 198 200 202 209 208 199 195 206 209 211 252 243 232 233 245 248 251 262 278
228 224 225 214 203 192 184 183 185 195 195 179 184 187 184 183 183 184 188 190 194 196 195 195 198 201 201 204 210 215 224 252 228 213 221 225 233 237 244 254 264 271 277
Height
1487 1490 1492 1495 1499 1503 1506 1509 1512 1515 1519 1523 1525 1527 1529 1532 1534 1535 1537 1539 1540 1541 1543 1544 1545 1546 1547 1547 1547 1549 1551 1552 1553 1554 1555 1555 1556 1556 1557 1557 1557 1557 1557
1487 1488 1492 1494 1498 1502 1506 1509 1512 1515 1518 1522 1525 1528 1530 1532 1534 1535 1537 1539 1541 1542 1543 1544 1545 1546 1547 1548 1548 1550 1551 1553 1554 1555 1556 1556 1557 1558 1558 1558 1558 1558 1558
1486 1487 1491 1494 1497 1502 1506 1509 1512 1515 1518 1521 1524 1527 1529 1531 1533 1535 1537 1539 1540 1542 1543 1544 1544 1545 1547 1548 1549 1551 1552 1553 1554 1556 1556 1557 1558 1559 1559 1559 1559 1559 1559
1483 1486 1490 1493 1497 1501 1505 1508 1512 1515 1518 1520 1523 1526 1529 1531 1533 1535 1536 1538 1540 1541 1542 1543 1544 1545 1546 1548 1550 1552 1553 1554 1555 1556 1557 1558 1559 1559 1559 1560 1560 1560 1560
1484 1485 1488 1492 1496 1501 1504 1507 1511 1515 1517 1519 1522 1525 1528 1530 1532 1534 1535 1537 1539 1540 1541 1543 1544 1545 1547 1548 1550 1552 1554 1555 1556 1557 1558 1559 1559 1560 1560 1560 1561 1561 1560
1485 1485 1489 1491 1496 1500 1503 1507 1511 1515 1517 1519 1521 1524 1527 1529 1531 1533 1534 1536 1538 1539 1541 1542 1544 1545 1547 1548 1550 1552 1553 1556 1557 1558 1559 1559 1560 1560 1561 1561 1560 1561 1560
1483 1485 1488 1491 1495 1500 1503 1506 1510 1514 1516 1518 1521 1524 1526 1528 1530 1532 1533 1536 1537 1538 1540 1542 1544 1545 1547 1548 1550 1552 1554 1556 1558 1559 1560 1561 1561 1561 1561 1561 1561 1560 1560
1481 1484 1487 1490 1494 1498 1502 1506 1510 1512 1515 1518 1521 1523 1525 1527 1529 1531 1533 1535 1536 1538 1540 1542 1544 1545 1547 1549 1551 1553 1554 1556 1558 1561 1561 1562 1562 1562 1561 1561 1561 1561 1560
1480 1483 1486 1489 1493 1496 1501 1505 1508 1511 1514 1516 1519 1521 1523 1526 1528 1530 1532 1535 1536 1538 1540 1542 1544 1546 1548 1550 1552 1553 1555 1557 1559 1561 1562 1563 1563 1562 1562 1560 1560 1559 1558
1478 1482 1485 1489 1492 1495 1500 1503 1506 1509 1512 1515 1517 1519 1522 1525 1527 1530 1532 1534 1536 1538 1540 1543 1544 1546 1549 1552 1553 1555 1557 1558 1560 1561 1563 1563 1563 1562 1562 1560 1559 1559 1558
1476 1479 1483 1488 1491 1494 1497 1501 1504 1506 1510 1512 1515 1518 1521 1524 1526 1529 1531 1534 1535 1537 1540 1543 1545 1546 1549 1552 1554 1556 1557 1558 1560 1561 1563 1563 1563 1562 1561 1560 1560 1560 1560
1467 1472 1478 1483 1488 1491 1495 1498 1500 1504 1506 1510 1513 1515 1519 1522 1525 1528 1531 1533 1535 1537 1540 1542 1545 1548 1550 1552 1554 1556 1557 1558 1560 1561 1562 1563 1562 1562 1561 1562 1561 1561 1562
1475 1475 1477 1481 1483 1487 1491 1494 1498 1501 1505 1507 1511 1513 1515 1520 1523 1526 1529 1532 1535 1538 1540 1543 1546 1548 1550 1551 1553 1555 1557 1559 1560 1562 1563 1563 1563 1562 1562 1562 1563 1562 1563
1454 1461 1465 1479 1477 1482 1487 1492 1496 1500 1503 1506 1509 1512 1514 1517 1521 1525 1528 1532 1536 1539 1541 1543 1546 1548 1550 1552 1553 1556 1558 1560 1561 1562 1563 1563 1564 1564 1564 1563 1563 1564 1564
1458 1462 1462 1469 1473 1476 1482 1488 1493 1497 1501 1504 1508 1511 1513 1516 1519 1523 1527 1531 1536 1539 1542 1544 1546 1548 1550 1552 1554 1557 1558 1560 1561 1563 1564 1564 1564 1565 1566 1566 1565 1564 1565
1458 1463 1456 1465 1472 1472 1475 1483 1489 1495 1500 1503 1507 1510 1513 1516 1518 1522 1526 1530 1534 1538 1542 1544 1546 1548 1550 1553 1555 1557 1559 1560 1562 1563 1564 1565 1566 1566 1566 1566 1566 1565 1565
1450 1460 1470 1469 1464 1454 1475 1480 1486 1492 1498 1503 1505 1509 1513 1517 1519 1522 1526 1530 1533 1537 1541 1544 1546 1548 1550 1553 1555 1557 1559 1561 1562 1564 1565 1566 1566 1567 1567 1567 1567 1566 1566
1451 1454 1459 1468 1477 1462 1457 1480 1484 1490 1497 1503 1505 1508 1512 1516 1519 1522 1525 1529 1533 1536 1540 1544 1546 1548 1550 1553 1556 1558 1560 1561 1563 1563 1564 1565 1566 1567 1567 1568 1567 1567 1567
1447 1449 1446 1453 1461 1463 1477 1473 1485 1492 1496 1501 1506 1507 1511 1515 1519 1521 1524 1528 1532 1536 1539 1543 1545 1548 1550 1552 1556 1558 1560 1562 1563 1563 1564 1564 1565 1566 1566 1567 1567 1567 1566
1454 1449 1450 1454 1459 1458 1468 1484 1488 1494 1498 1501 1505 1507 1511 1514 1518 1520 1523 1527 1530 1534 1538 1541 1544 1547 1549 1552 1554 1558 1560 1562 1562 1563 1564 1564 1564 1565 1565 1565 1566 1566 1566
1449 1453 1454 1454 1449 1448 1457 1480 1494 1499 1501 1501 1504 1506 1510 1513 1515 1519 1522 1525 1529 1532 1536 1539 1542 1545 1547 1549 1551 1555 1559 1561 1562 1562 1563 1563 1562 1563 1564 1564 1563 1565 1565
1453 1456 1457 1459 1454 1453 1451 1472 1488 1498 1502 1501 1503 1504 1509 1512 1513 1517 1521 1523 1527 1529 1533 1536 1539 1541 1544 1547 1548 1551 1554 1560 1560 1560 1561 1562 1561 1561 1563 1563 1562 1562 1563
1452 1453 1455 1455 1449 1455 1454 1468 1489 1497 1498 1501 1500 1503 1508 1510 1511 1515 1520 1523 1526 1529 1532 1534 1537 1540 1542 1545 1545 1547 1551 1554 1557 1558 1559 1560 1560 1559 1560 1561 1562 1561 1560
1452 1451 1450 1448 1452 1453 1458 1464 1473 1483 1487 1494 1498 1503 1506 1507 1509 1513 1517 1521 1524 1527 1531 1533 1536 1539 1541 1543 1544 1544 1545 1548 1551 1555 1557 1558 1557 1557 1559 1557 1559 1561 1560
1451 1452 1451 1453 1454 1457 1460 1466 1470 1470 1483 1489 1496 1500 1503 1505 1507 1511 1515 1518 1521 1524 1526 1529 1533 1536 1538 1542 1543 1543 1543 1547 1546 1549 1552 1555 1555 1555 1555 1555 1555 1557 1557
1450 1451 1453 1454 1456 1457 1462 1469 1469 1472 1482 1484 1490 1497 1499 1501 1504 1508 1512 1515 1519 1521 1522 1524 1529 1532 1536 1539 1542 1544 1544 1543 1543 1544 1549 1551 1553 1551 1552 1551 1553 1554 1553